"Platform","Reno Beach Station"
"Latitude (deg)",41.68
"Longitude (deg)",-83.25
"Water Depth (m)","7 to 8"
"Sensor Device","Campbell CR200 Logger analog input and Pololu ACS711EX current sensor"
"Sensor Type","Solar Panel current"
"Sensor Units","amps"
"Measurement","2 minute average of data samples taken at 5 second interval"
"Time means","Time at beginning of averaging period (UTC time zone)"

"Note:","This data was collected for research purposes."
"Note:","Minimal quality checking has been performed so data may contain known or unknown errors."
"Note:","Data provided by NOAA. Please credit NOAA."
"Note:","For more info see www.glerl.noaa.gov/res/recon"

"Time (UTC)","Solar Panel Current"
"YYYY/MM/DD HH:MM","amps"
2019/11/01 12:05, -0.1261587
2019/11/01 12:10, -0.1246742
2019/11/01 12:15, -0.1238978
2019/11/01 12:20, -0.1168317
2019/11/01 12:25, -0.1029876
2019/11/01 12:30, -0.08933134
2019/11/01 12:35, -0.06379245
2019/11/01 12:40, -0.04139983
2019/11/01 12:45, -0.01741645
2019/11/01 12:50, 0.007563655
2019/11/01 12:55, -0.001196448
2019/11/01 13:00, 0.03274072
2019/11/01 13:05, 0.0531956
2019/11/01 13:10, 0.04615869
2019/11/01 13:15, -0.002454853
2019/11/01 13:20, -0.01969856
2019/11/01 13:25, 0.01716172
2019/11/01 13:30, 0.04343001
2019/11/01 13:35, 0.08099292
2019/11/01 13:40, 0.1024062
2019/11/01 13:45, 0.2384875
2019/11/01 13:50, 0.196393
2019/11/01 13:55, 0.258151
2019/11/01 14:00, 0.2637705
2019/11/01 14:05, 0.2428747
2019/11/01 14:10, 0.329313
2019/11/01 14:15, 0.3389815
2019/11/01 14:20, 0.3502353
2019/11/01 14:25, 0.388066
2019/11/01 14:30, 0.509303
2019/11/01 14:35, 0.5720491
2019/11/01 14:40, 0.450221
2019/11/01 14:45, 0.4837463
2019/11/01 14:50, 0.5192568
2019/11/01 14:55, 0.5152137
2019/11/01 15:00, 0.6042337
2019/11/01 15:05, 0.6975822
2019/11/01 15:10, 0.7485605
2019/11/01 15:15, 0.8633105
2019/11/01 15:20, 0.8739141
2019/11/01 15:25, 0.8955572
2019/11/01 15:30, 0.7996852
2019/11/01 15:35, 0.9510637
2019/11/01 15:40, 1.133788
2019/11/01 15:45, 1.151808
2019/11/01 15:50, 1.072762
2019/11/01 15:55, 1.110287
2019/11/01 16:00, 1.22771
2019/11/01 16:05, 1.457275
2019/11/01 16:10, 1.711665
2019/11/01 16:15, 1.617837
2019/11/01 16:20, 1.281641
2019/11/01 16:25, 1.443328
2019/11/01 16:30, 0.9531333
2019/11/01 16:35, 0.6638158
2019/11/01 16:40, 1.252094
2019/11/01 16:45, 2.106899
2019/11/01 16:50, 1.371598
2019/11/01 16:55, 1.112136
2019/11/01 17:00, 1.758003
2019/11/01 17:05, 0.9236366
2019/11/01 17:10, 1.56336
2019/11/01 17:15, 1.165908
2019/11/01 17:20, 1.731861
2019/11/01 17:25, 1.444716
2019/11/01 17:30, 1.613297
2019/11/01 17:35, 1.893517
2019/11/01 17:40, 1.988147
2019/11/01 17:45, 1.568526
2019/11/01 17:50, 2.382178
2019/11/01 17:55, 1.282737
2019/11/01 18:00, 1.914994
2019/11/01 18:05, 1.545566
2019/11/01 18:10, 1.415348
2019/11/01 18:15, 1.680577
2019/11/01 18:20, 1.587649
2019/11/01 18:25, 1.3798
2019/11/01 18:30, 1.804081
2019/11/01 18:35, 1.76536
2019/11/01 18:40, 1.608642
2019/11/01 18:45, 2.022569
2019/11/01 18:50, 1.841398
2019/11/01 18:55, 1.514911
2019/11/01 19:00, 1.613458
2019/11/01 19:05, 1.601567
2019/11/01 19:10, 1.657897
2019/11/01 19:15, 1.650021
2019/11/01 19:20, 1.663631
2019/11/01 19:25, 1.502325
2019/11/01 19:30, 1.498799
2019/11/01 19:35, 1.364482
2019/11/01 19:40, 1.306427
2019/11/01 19:45, 1.414707
2019/11/01 19:50, 1.249588
2019/11/01 19:55, 1.25689
2019/11/01 20:00, 0.9991096
2019/11/01 20:05, 1.081936
2019/11/01 20:10, 1.245571
2019/11/01 20:15, 1.285419
2019/11/01 20:20, 1.189047
2019/11/01 20:25, 1.102436
2019/11/01 20:30, 0.7012051
2019/11/01 20:35, 0.7814828
2019/11/01 20:40, 1.003265
2019/11/01 20:45, 0.8435352
2019/11/01 20:50, 1.031591
2019/11/01 20:55, 0.9115068
2019/11/01 21:00, 0.8520334
2019/11/01 21:05, 0.7650658
2019/11/01 21:10, 0.6065069
2019/11/01 21:15, 0.5886754
2019/11/01 21:20, 0.4557108
2019/11/01 21:25, 0.2973489
2019/11/01 21:30, 0.2166772
2019/11/01 21:35, 0.2235229
2019/11/01 21:40, 0.1360906
2019/11/01 21:45, 0.1321296
2019/11/01 21:50, 0.1223491
2019/11/01 21:55, 0.08196316
2019/11/01 22:00, 0.05665375
2019/11/01 22:05, 0.01733513
2019/11/01 22:10, -0.03595419
2019/11/01 22:15, -0.06211348
2019/11/01 22:20, -0.07923046
2019/11/01 22:25, -0.09009294
2019/11/01 22:30, -0.106216
2019/11/01 22:35, -0.1112622
2019/11/01 22:40, -0.1168228
2019/11/01 22:45, -0.1182608
2019/11/01 22:50, -0.1183228
2019/11/01 22:55, -0.1195576
2019/11/01 23:00, -0.1196428
2019/11/01 23:05, -0.1182079
2019/11/01 23:10, -0.1185726
2019/11/01 23:15, -0.1175844
2019/11/01 23:20, -0.1176138
2019/11/01 23:25, -0.1179873
2019/11/01 23:30, -0.1164524
2019/11/01 23:35, -0.1169346
2019/11/01 23:40, -0.1156495
2019/11/01 23:45, -0.1153465
2019/11/01 23:50, -0.1185845
2019/11/01 23:55, -0.1169434
2019/11/02 00:00, -0.1152439
2019/11/02 00:05, -0.117755
2019/11/02 00:10, -0.1184402
2019/11/02 00:15, -0.1181106
2019/11/02 00:20, -0.1150791
2019/11/02 00:25, -0.1206017
2019/11/02 00:30, -0.1180226
2019/11/02 00:35, -0.1179815
2019/11/02 00:40, -0.1202338
2019/11/02 00:45, -0.1170375
2019/11/02 00:50, -0.1178049
2019/11/02 00:55, -0.1222157
2019/11/02 01:00, -0.1254977
2019/11/02 01:05, -0.1209516
2019/11/02 01:10, -0.1215102
2019/11/02 01:15, -0.121075
2019/11/02 01:20, -0.1204455
2019/11/02 01:25, -0.1213897
2019/11/02 01:30, -0.122504
2019/11/02 01:35, -0.122645
2019/11/02 01:40, -0.1218658
2019/11/02 01:45, -0.1228834
2019/11/02 01:50, -0.1199574
2019/11/02 01:55, -0.1225277
2019/11/02 02:00, -0.1222893
2019/11/02 02:05, -0.1215572
2019/11/02 02:10, -0.1227717
2019/11/02 02:15, -0.1213778
2019/11/02 02:20, -0.1220483
2019/11/02 02:25, -0.1182226
2019/11/02 02:30, -0.1195813
2019/11/02 02:35, -0.1206015
2019/11/02 02:40, -0.1202987
2019/11/02 02:45, -0.1223981
2019/11/02 02:50, -0.1218599
2019/11/02 02:55, -0.1210366
2019/11/02 03:00, -0.1202249
2019/11/02 03:05, -0.125418
2019/11/02 03:10, -0.1241624
2019/11/02 03:15, -0.1212573
2019/11/02 03:20, -0.1193193
2019/11/02 03:25, -0.1209337
2019/11/02 03:30, -0.1200603
2019/11/02 03:35, -0.1205722
2019/11/02 03:40, -0.1173608
2019/11/02 03:45, -0.11944
2019/11/02 03:50, -0.1216542
2019/11/02 03:55, -0.1212925
2019/11/02 04:00, -0.1202809
2019/11/02 04:05, -0.1221394
2019/11/02 04:10, -0.1207926
2019/11/02 04:15, -0.1201986
2019/11/02 04:20, -0.1190902
2019/11/02 04:25, -0.1191782
2019/11/02 04:30, -0.1188782
2019/11/02 04:35, -0.1196722
2019/11/02 04:40, -0.1217337
2019/11/02 04:45, -0.1219277
2019/11/02 04:50, -0.1213426
2019/11/02 04:55, -0.1226128
2019/11/02 05:00, -0.1223718
2019/11/02 05:05, -0.1241799
2019/11/02 05:10, -0.1230098
2019/11/02 05:15, -0.1237951
2019/11/02 05:20, -0.122007
2019/11/02 05:25, -0.1249331
2019/11/02 05:30, -0.1212014
2019/11/02 05:35, -0.1209102
2019/11/02 05:40, -0.123439
2019/11/02 05:45, -0.1221455
2019/11/02 05:50, -0.122307
2019/11/02 05:55, -0.1216777
2019/11/02 06:00, -0.1245625
2019/11/02 06:05, -0.1243303
2019/11/02 06:10, -0.12523
2019/11/02 06:15, -0.1212982
2019/11/02 06:20, -0.1252888
2019/11/02 06:25, -0.1228306
2019/11/02 06:30, -0.1245506
2019/11/02 06:35, -0.1219102
2019/11/02 06:40, -0.1233096
2019/11/02 06:45, -0.1246448
2019/11/02 06:50, -0.1250181
2019/11/02 06:55, -0.1235095
2019/11/02 07:00, -0.1206041
2019/11/02 07:05, -0.1258328
2019/11/02 07:10, -0.1238773
2019/11/02 07:15, -0.1253446
2019/11/02 07:20, -0.1231714
2019/11/02 07:25, -0.125383
2019/11/02 07:30, -0.1233156
2019/11/02 07:35, -0.1233215
2019/11/02 07:40, -0.1258327
2019/11/02 07:45, -0.1239419
2019/11/02 07:50, -0.1250829
2019/11/02 07:55, -0.1263503
2019/11/02 08:00, -0.1266531
2019/11/02 08:05, -0.1279235
2019/11/02 08:10, -0.128206
2019/11/02 08:15, -0.127653
2019/11/02 08:20, -0.126771
2019/11/02 08:25, -0.1251122
2019/11/02 08:30, -0.1239363
2019/11/02 08:35, -0.1245743
2019/11/02 08:40, -0.1231626
2019/11/02 08:45, -0.1235565
2019/11/02 08:50, -0.1240626
2019/11/02 08:55, -0.1258416
2019/11/02 09:00, -0.1258209
2019/11/02 09:05, -0.1268737
2019/11/02 09:10, -0.1250948
2019/11/02 09:15, -0.1250592
2019/11/02 09:20, -0.1243831
2019/11/02 09:25, -0.1242007
2019/11/02 09:30, -0.1238919
2019/11/02 09:35, -0.1250949
2019/11/02 09:40, -0.1245891
2019/11/02 09:45, -0.1256004
2019/11/02 09:50, -0.1244537
2019/11/02 09:55, -0.1234332
2019/11/02 10:00, -0.1224276
2019/11/02 10:05, -0.1256122
2019/11/02 10:10, -0.1231305
2019/11/02 10:15, -0.1268266
2019/11/02 10:20, -0.1255739
2019/11/02 10:25, -0.1251978
2019/11/02 10:30, -0.1247476
2019/11/02 10:35, -0.1223541
2019/11/02 10:40, -0.1224748
2019/11/02 10:45, -0.124192
2019/11/02 10:50, -0.1219309
2019/11/02 10:55, -0.1238978
2019/11/02 11:00, -0.122216
2019/11/02 11:05, -0.1209748
2019/11/02 11:10, -0.1228953
2019/11/02 11:15, -0.1231891
2019/11/02 11:20, -0.1254682
2019/11/02 11:25, -0.1227392
2019/11/02 11:30, -0.1222924
2019/11/02 11:35, -0.1198251
2019/11/02 11:40, -0.1236303
2019/11/02 11:45, -0.122645
2019/11/02 11:50, -0.1215572
2019/11/02 11:55, -0.121913
2019/11/02 12:00, -0.120922
2019/11/02 12:05, -0.1089924
2019/11/02 12:10, -0.1002821
2019/11/02 12:15, -0.08303273
2019/11/02 12:20, -0.06371892
2019/11/02 12:25, -0.0323871
2019/11/02 12:30, 0.01641483
2019/11/02 12:35, 0.06989533
2019/11/02 12:40, 0.1326911
2019/11/02 12:45, 0.1920587
2019/11/02 12:50, 0.2747771
2019/11/02 12:55, 0.5878429
2019/11/02 13:00, 0.7807215
2019/11/02 13:05, 0.9731091
2019/11/02 13:10, 0.4098879
2019/11/02 13:15, 0.3060327
2019/11/02 13:20, 0.08506562
2019/11/02 13:25, 0.1465737
2019/11/02 13:30, 0.1537048
2019/11/02 13:35, 0.2394136
2019/11/02 13:40, 0.191194
2019/11/02 13:45, 0.1397602
2019/11/02 13:50, 0.1830575
2019/11/02 13:55, 0.3230233
2019/11/02 14:00, 0.5242853
2019/11/02 14:05, 0.6682354
2019/11/02 14:10, 0.5692615
2019/11/02 14:15, 0.2917384
2019/11/02 14:20, 0.1386902
2019/11/02 14:25, 0.1399957
2019/11/02 14:30, 0.1871213
2019/11/02 14:35, 0.2400665
2019/11/02 14:40, 0.2845429
2019/11/02 14:45, 0.3689462
2019/11/02 14:50, 0.4005516
2019/11/02 14:55, 0.2866394
2019/11/02 15:00, 0.2404664
2019/11/02 15:05, 0.3015303
2019/11/02 15:10, 0.3255315
2019/11/02 15:15, 0.5012104
2019/11/02 15:20, 0.7219422
2019/11/02 15:25, 0.8197696
2019/11/02 15:30, 1.060359
2019/11/02 15:35, 1.373184
2019/11/02 15:40, 1.362471
2019/11/02 15:45, 1.104227
2019/11/02 15:50, 1.164849
2019/11/02 15:55, 1.195508
2019/11/02 16:00, 1.285254
2019/11/02 16:05, 1.151996
2019/11/02 16:10, 0.9950809
2019/11/02 16:15, 1.378953
2019/11/02 16:20, 1.306974
2019/11/02 16:25, 0.7815976
2019/11/02 16:30, 0.920199
2019/11/02 16:35, 1.058007
2019/11/02 16:40, 0.8756111
2019/11/02 16:45, 0.55994
2019/11/02 16:50, 0.7324988
2019/11/02 16:55, 1.358969
2019/11/02 17:00, 1.041242
2019/11/02 17:05, 0.7558384
2019/11/02 17:10, 0.8589204
2019/11/02 17:15, 0.9878613
2019/11/02 17:20, 0.9235954
2019/11/02 17:25, 1.006161
2019/11/02 17:30, 0.8830976
2019/11/02 17:35, 0.9558976
2019/11/02 17:40, 0.8671567
2019/11/02 17:45, 0.9930049
2019/11/02 17:50, 0.9867915
2019/11/02 17:55, 0.6370976
2019/11/02 18:00, 0.72655
2019/11/02 18:05, 0.5526444
2019/11/02 18:10, 0.6664829
2019/11/02 18:15, 0.9196406
2019/11/02 18:20, 0.9215019
2019/11/02 18:25, 0.390733
2019/11/02 18:30, 0.4325127
2019/11/02 18:35, 0.656617
2019/11/02 18:40, 0.6463078
2019/11/02 18:45, 0.5699171
2019/11/02 18:50, 0.617925
2019/11/02 18:55, 0.4619508
2019/11/02 19:00, 0.9984272
2019/11/02 19:05, 0.6270027
2019/11/02 19:10, 0.490339
2019/11/02 19:15, 0.4100408
2019/11/02 19:20, 0.1396368
2019/11/02 19:25, 0.09520181
2019/11/02 19:30, 0.185113
2019/11/02 19:35, 0.4740896
2019/11/02 19:40, 0.6231652
2019/11/02 19:45, 0.5810384
2019/11/02 19:50, 0.5292019
2019/11/02 19:55, 0.6241916
2019/11/02 20:00, 0.4346123
2019/11/02 20:05, 0.3227966
2019/11/02 20:10, 0.415675
2019/11/02 20:15, 0.4083736
2019/11/02 20:20, 0.3999606
2019/11/02 20:25, 0.5276052
2019/11/02 20:30, 0.4613952
2019/11/02 20:35, 0.3329357
2019/11/02 20:40, 0.4185067
2019/11/02 20:45, 0.4582044
2019/11/02 20:50, 0.483179
2019/11/02 20:55, 0.4931504
2019/11/02 21:00, 0.4754218
2019/11/02 21:05, 0.459322
2019/11/02 21:10, 0.4035628
2019/11/02 21:15, 0.2994752
2019/11/02 21:20, 0.1843955
2019/11/02 21:25, 0.08036064
2019/11/02 21:30, 0.0962986
2019/11/02 21:35, 0.1940495
2019/11/02 21:40, 0.236582
2019/11/02 21:45, 0.1439036
2019/11/02 21:50, 0.05019035
2019/11/02 21:55, 0.0531044
2019/11/02 22:00, 0.01974351
2019/11/02 22:05, -0.01046171
2019/11/02 22:10, -0.0383447
2019/11/02 22:15, -0.05879068
2019/11/02 22:20, -0.07544307
2019/11/02 22:25, -0.09299542
2019/11/02 22:30, -0.1028933
2019/11/02 22:35, -0.1099362
2019/11/02 22:40, -0.1158053
2019/11/02 22:45, -0.1145322
2019/11/02 22:50, -0.1160818
2019/11/02 22:55, -0.1161377
2019/11/02 23:00, -0.1155585
2019/11/02 23:05, -0.1176553
2019/11/02 23:10, -0.1215336
2019/11/02 23:15, -0.1144058
2019/11/02 23:20, -0.1179961
2019/11/02 23:25, -0.1177109
2019/11/02 23:30, -0.1166611
2019/11/02 23:35, -0.1172314
2019/11/02 23:40, -0.1162613
2019/11/02 23:45, -0.1157996
2019/11/02 23:50, -0.1175697
2019/11/02 23:55, -0.117014
2019/11/03 00:00, -0.1165612
2019/11/03 00:05, -0.1192901
2019/11/03 00:10, -0.1163994
2019/11/03 00:15, -0.1186725
2019/11/03 00:20, -0.1198929
2019/11/03 00:25, -0.120284
2019/11/03 00:30, -0.1171522
2019/11/03 00:35, -0.1166847
2019/11/03 00:40, -0.1172434
2019/11/03 00:45, -0.1151703
2019/11/03 00:50, -0.1145294
2019/11/03 00:55, -0.1187959
2019/11/03 01:00, -0.1180169
2019/11/03 01:05, -0.1173434
2019/11/03 01:10, -0.1161846
2019/11/03 01:15, -0.1177079
2019/11/03 01:20, -0.1189343
2019/11/03 01:25, -0.1199221
2019/11/03 01:30, -0.120975
2019/11/03 01:35, -0.1166553
2019/11/03 01:40, -0.1157701
2019/11/03 01:45, -0.1182227
2019/11/03 01:50, -0.1197135
2019/11/03 01:55, -0.1217571
2019/11/03 02:00, -0.1222248
2019/11/03 02:05, -0.1202604
2019/11/03 02:10, -0.1193987
2019/11/03 02:15, -0.1203046
2019/11/03 02:20, -0.120928
2019/11/03 02:25, -0.1196959
2019/11/03 02:30, -0.1206282
2019/11/03 02:35, -0.1201957
2019/11/03 02:40, -0.1196694
2019/11/03 02:45, -0.1207427
2019/11/03 02:50, -0.1212718
2019/11/03 02:55, -0.1206633
2019/11/03 03:00, -0.1212454
2019/11/03 03:05, -0.1222598
2019/11/03 03:10, -0.1202368
2019/11/03 03:15, -0.1222954
2019/11/03 03:20, -0.1195869
2019/11/03 03:25, -0.1204249
2019/11/03 03:30, -0.1216249
2019/11/03 03:35, -0.1243095
2019/11/03 03:40, -0.1205486
2019/11/03 03:45, -0.1215073
2019/11/03 03:50, -0.1203251
2019/11/03 03:55, -0.1200341
2019/11/03 04:00, -0.1200339
2019/11/03 04:05, -0.119684
2019/11/03 04:10, -0.120528
2019/11/03 04:15, -0.1242772
2019/11/03 04:20, -0.1211542
2019/11/03 04:25, -0.1193546
2019/11/03 04:30, -0.1199959
2019/11/03 04:35, -0.1218483
2019/11/03 04:40, -0.1217396
2019/11/03 04:45, -0.1223951
2019/11/03 04:50, -0.1203427
2019/11/03 04:55, -0.1235243
2019/11/03 05:00, -0.1226186
2019/11/03 05:05, -0.120825
2019/11/03 05:10, -0.1203457
2019/11/03 05:15, -0.1230923
2019/11/03 05:20, -0.1218456
2019/11/03 05:25, -0.118349
2019/11/03 05:30, -0.1214336
2019/11/03 05:35, -0.1199164
2019/11/03 05:40, -0.1204632
2019/11/03 05:45, -0.1220541
2019/11/03 05:50, -0.1197871
2019/11/03 05:55, -0.1202074
2019/11/03 06:00, -0.1239068
2019/11/03 06:05, -0.1260295
2019/11/03 06:10, -0.1225039
2019/11/03 06:15, -0.1226657
2019/11/03 06:20, -0.1230363
2019/11/03 06:25, -0.1226688
2019/11/03 06:30, -0.1216984
2019/11/03 06:35, -0.1233686
2019/11/03 06:40, -0.1243361
2019/11/03 06:45, -0.1229804
2019/11/03 06:50, -0.1246772
2019/11/03 06:55, -0.123354
2019/11/03 07:00, -0.1257593
2019/11/03 07:05, -0.1235214
2019/11/03 07:10, -0.1223245
2019/11/03 07:15, -0.1205985
2019/11/03 07:20, -0.1228746
2019/11/03 07:25, -0.1214189
2019/11/03 07:30, -0.123989
2019/11/03 07:35, -0.1232187
2019/11/03 07:40, -0.1232245
2019/11/03 07:45, -0.121022
2019/11/03 07:50, -0.1194429
2019/11/03 07:55, -0.1223629
2019/11/03 08:00, -0.1245714
2019/11/03 08:05, -0.1229715
2019/11/03 08:10, -0.1235569
2019/11/03 08:15, -0.123995
2019/11/03 08:20, -0.1255183
2019/11/03 08:25, -0.1278091
2019/11/03 08:30, -0.1249859
2019/11/03 08:35, -0.1270267
2019/11/03 08:40, -0.1261621
2019/11/03 08:45, -0.1229423
2019/11/03 08:50, -0.1251476
2019/11/03 08:55, -0.1260151
2019/11/03 09:00, -0.1247065
2019/11/03 09:05, -0.1267298
2019/11/03 09:10, -0.1263914
2019/11/03 09:15, -0.1239892
2019/11/03 09:20, -0.1253622
2019/11/03 09:25, -0.1274091
2019/11/03 09:30, -0.1257564
2019/11/03 09:35, -0.1238274
2019/11/03 09:40, -0.1238273
2019/11/03 09:45, -0.1246476
2019/11/03 09:50, -0.1244504
2019/11/03 09:55, -0.1219776
2019/11/03 10:00, -0.1250712
2019/11/03 10:05, -0.125321
2019/11/03 10:10, -0.1261768
2019/11/03 10:15, -0.1226804
2019/11/03 10:20, -0.1230832
2019/11/03 10:25, -0.1209779
2019/11/03 10:30, -0.1243038
2019/11/03 10:35, -0.1228216
2019/11/03 10:40, -0.1226482
2019/11/03 10:45, -0.1228893
2019/11/03 10:50, -0.1227832
2019/11/03 10:55, -0.1259505
2019/11/03 11:00, -0.1250534
2019/11/03 11:05, -0.1240272
2019/11/03 11:10, -0.1233921
2019/11/03 11:15, -0.1254829
2019/11/03 11:20, -0.1261504
2019/11/03 11:25, -0.1275208
2019/11/03 11:30, -0.1275118
2019/11/03 11:35, -0.1279383
2019/11/03 11:40, -0.1269501
2019/11/03 11:45, -0.1279324
2019/11/03 11:50, -0.130029
2019/11/03 11:55, -0.1284823
2019/11/03 12:00, -0.1209072
2019/11/03 12:05, -0.1124001
2019/11/03 12:10, -0.07144108
2019/11/03 12:15, 0.03951311
2019/11/03 12:20, 0.1383372
2019/11/03 12:25, 0.2832899
2019/11/03 12:30, 0.4414581
2019/11/03 12:35, 0.6236383
2019/11/03 12:40, 0.7909281
2019/11/03 12:45, 1.003691
2019/11/03 12:50, 1.028962
2019/11/03 12:55, 0.5048217
2019/11/03 13:00, 0.2839221
2019/11/03 13:05, 0.5557435
2019/11/03 13:10, 0.5635539
2019/11/03 13:15, 0.5662504
2019/11/03 13:20, 0.4427311
2019/11/03 13:25, 0.5331923
2019/11/03 13:30, 0.4795386
2019/11/03 13:35, 0.6068038
2019/11/03 13:40, 0.7420617
2019/11/03 13:45, 0.9582087
2019/11/03 13:50, 1.141192
2019/11/03 13:55, 1.226028
2019/11/03 14:00, 1.197896
2019/11/03 14:05, 1.379838
2019/11/03 14:10, 1.312293
2019/11/03 14:15, 1.152764
2019/11/03 14:20, 1.052555
2019/11/03 14:25, 0.8967183
2019/11/03 14:30, 0.9268566
2019/11/03 14:35, 0.8080159
2019/11/03 14:40, 0.8008497
2019/11/03 14:45, 0.841553
2019/11/03 14:50, 0.7662067
2019/11/03 14:55, 0.7239151
2019/11/03 15:00, 0.6760017
2019/11/03 15:05, 0.7236448
2019/11/03 15:10, 0.703325
2019/11/03 15:15, 0.7440875
2019/11/03 15:20, 0.8516071
2019/11/03 15:25, 0.6156138
2019/11/03 15:30, 0.6543531
2019/11/03 15:35, 0.5646859
2019/11/03 15:40, 0.6105234
2019/11/03 15:45, 0.5810149
2019/11/03 15:50, 0.4589104
2019/11/03 15:55, 0.4302895
2019/11/03 16:00, 0.5281433
2019/11/03 16:05, 0.3573661
2019/11/03 16:10, 0.6044512
2019/11/03 16:15, 0.4849255
2019/11/03 16:20, 0.5518414
2019/11/03 16:25, 0.3905771
2019/11/03 16:30, 0.2256576
2019/11/03 16:35, 0.5444724
2019/11/03 16:40, 0.363506
2019/11/03 16:45, 0.2673698
2019/11/03 16:50, 0.3581336
2019/11/03 16:55, 0.4700669
2019/11/03 17:00, 0.3543258
2019/11/03 17:05, 0.1135599
2019/11/03 17:10, 0.3045267
2019/11/03 17:15, 0.5862639
2019/11/03 17:20, 0.4497561
2019/11/03 17:25, 0.4828761
2019/11/03 17:30, 0.3019979
2019/11/03 17:35, 0.6558763
2019/11/03 17:40, 0.5812677
2019/11/03 17:45, 0.4059122
2019/11/03 17:50, 0.1485174
2019/11/03 17:55, 0.4761008
2019/11/03 18:00, 0.2731627
2019/11/03 18:05, 0.4982788
2019/11/03 18:10, 0.1564628
2019/11/03 18:15, 0.412158
2019/11/03 18:20, 0.3013686
2019/11/03 18:25, 0.3883423
2019/11/03 18:30, 0.4159162
2019/11/03 18:35, 0.49288
2019/11/03 18:40, 0.3999342
2019/11/03 18:45, 0.2695841
2019/11/03 18:50, 0.3205207
2019/11/03 18:55, 0.3497031
2019/11/03 19:00, 0.5232062
2019/11/03 19:05, 0.2102461
2019/11/03 19:10, 0.2996926
2019/11/03 19:15, 0.3586513
2019/11/03 19:20, 0.5034719
2019/11/03 19:25, 0.4042918
2019/11/03 19:30, 0.3079761
2019/11/03 19:35, 0.1986191
2019/11/03 19:40, 0.6380623
2019/11/03 19:45, 0.3074263
2019/11/03 19:50, 0.2520934
2019/11/03 19:55, 0.2857162
2019/11/03 20:00, 0.3722221
2019/11/03 20:05, 0.3765182
2019/11/03 20:10, 0.2831253
2019/11/03 20:15, 0.4263876
2019/11/03 20:20, 0.3931413
2019/11/03 20:25, 0.3371321
2019/11/03 20:30, 0.2501144
2019/11/03 20:35, 0.201433
2019/11/03 20:40, 0.2482972
2019/11/03 20:45, 0.1534812
2019/11/03 20:50, 0.1286333
2019/11/03 20:55, 0.2272249
2019/11/03 21:00, 0.2743535
2019/11/03 21:05, 0.2576748
2019/11/03 21:10, 0.2561957
2019/11/03 21:15, 0.2152158
2019/11/03 21:20, 0.1968018
2019/11/03 21:25, 0.1834956
2019/11/03 21:30, 0.1393693
2019/11/03 21:35, 0.08123998
2019/11/03 21:40, 0.03534037
2019/11/03 21:45, -0.003437106
2019/11/03 21:50, -0.03295743
2019/11/03 21:55, -0.03817428
2019/11/03 22:00, -0.05500008
2019/11/03 22:05, -0.06847095
2019/11/03 22:10, -0.07739261
2019/11/03 22:15, -0.08620841
2019/11/03 22:20, -0.09561847
2019/11/03 22:25, -0.1031521
2019/11/03 22:30, -0.1053136
2019/11/03 22:35, -0.1059749
2019/11/03 22:40, -0.1083979
2019/11/03 22:45, -0.1084686
2019/11/03 22:50, -0.1085508
2019/11/03 22:55, -0.1093098
2019/11/03 23:00, -0.1077131
2019/11/03 23:05, -0.1069248
2019/11/03 23:10, -0.106969
2019/11/03 23:15, -0.109254
2019/11/03 23:20, -0.1092832
2019/11/03 23:25, -0.107463
2019/11/03 23:30, -0.1075718
2019/11/03 23:35, -0.1071806
2019/11/03 23:40, -0.1087392
2019/11/03 23:45, -0.1075156
2019/11/03 23:50, -0.1085186
2019/11/03 23:55, -0.1101153
2019/11/04 00:00, -0.1127885
2019/11/04 00:05, -0.108395
2019/11/04 00:10, -0.10806
2019/11/04 00:15, -0.1089129
2019/11/04 00:20, -0.110286
2019/11/04 00:25, -0.1098212
2019/11/04 00:30, -0.1104124
2019/11/04 00:35, -0.1085451
2019/11/04 00:40, -0.111318
2019/11/04 00:45, -0.1086892
2019/11/04 00:50, -0.1082364
2019/11/04 00:55, -0.1094451
2019/11/04 01:00, -0.1117297
2019/11/04 01:05, -0.1102831
2019/11/04 01:10, -0.1096214
2019/11/04 01:15, -0.1108123
2019/11/04 01:20, -0.1086716
2019/11/04 01:25, -0.1094422
2019/11/04 01:30, -0.1063722
2019/11/04 01:35, -0.1118591
2019/11/04 01:40, -0.1102419
2019/11/04 01:45, -0.1070954
2019/11/04 01:50, -0.1109066
2019/11/04 01:55, -0.1121354
2019/11/04 02:00, -0.1100096
2019/11/04 02:05, -0.1127176
2019/11/04 02:10, -0.1107653
2019/11/04 02:15, -0.1131443
2019/11/04 02:20, -0.1131324
2019/11/04 02:25, -0.1143558
2019/11/04 02:30, -0.1123354
2019/11/04 02:35, -0.1126648
2019/11/04 02:40, -0.1127061
2019/11/04 02:45, -0.1118738
2019/11/04 02:50, -0.1101596
2019/11/04 02:55, -0.1105595
2019/11/04 03:00, -0.1113358
2019/11/04 03:05, -0.1138442
2019/11/04 03:10, -0.1117326
2019/11/04 03:15, -0.1110389
2019/11/04 03:20, -0.1113416
2019/11/04 03:25, -0.110924
2019/11/04 03:30, -0.109201
2019/11/04 03:35, -0.1081247
2019/11/04 03:40, -0.1107005
2019/11/04 03:45, -0.1116062
2019/11/04 03:50, -0.1102004
2019/11/04 03:55, -0.111721
2019/11/04 04:00, -0.1137882
2019/11/04 04:05, -0.1135237
2019/11/04 04:10, -0.1112326
2019/11/04 04:15, -0.1112623
2019/11/04 04:20, -0.1112829
2019/11/04 04:25, -0.1128384
2019/11/04 04:30, -0.1116944
2019/11/04 04:35, -0.1135089
2019/11/04 04:40, -0.1139087
2019/11/04 04:45, -0.1110944
2019/11/04 04:50, -0.1099536
2019/11/04 04:55, -0.1123443
2019/11/04 05:00, -0.1119238
2019/11/04 05:05, -0.1136059
2019/11/04 05:10, -0.1134501
2019/11/04 05:15, -0.1126942
2019/11/04 05:20, -0.111624
2019/11/04 05:25, -0.111071
2019/11/04 05:30, -0.1115446
2019/11/04 05:35, -0.1151054
2019/11/04 05:40, -0.1141853
2019/11/04 05:45, -0.1134265
2019/11/04 05:50, -0.1130618